"Date","Average Accumulated Water Year PPT (in)","Average SWE (in)"
10/01/1981,0.000,0.000
10/02/1981,0.000,0.000
10/03/1981,0.151,0.000
10/04/1981,0.151,0.000
10/05/1981,0.151,0.000
10/06/1981,0.151,0.000
10/07/1981,0.151,0.000
10/08/1981,0.151,0.000
10/09/1981,0.151,0.000
10/10/1981,0.151,0.000
10/11/1981,0.151,0.000
10/12/1981,0.151,0.000
10/13/1981,0.151,0.000
10/14/1981,0.151,0.000
10/15/1981,0.187,0.000
10/16/1981,0.571,0.000
10/17/1981,0.652,0.000
10/18/1981,0.652,0.000
10/19/1981,0.652,0.000
10/20/1981,0.652,0.000
10/21/1981,0.652,0.000
10/22/1981,0.652,0.000
10/23/1981,0.652,0.000
10/24/1981,0.652,0.000
10/25/1981,0.753,0.000
10/26/1981,0.753,0.000
10/27/1981,0.753,0.000
10/28/1981,0.753,0.000
10/29/1981,0.753,0.000
10/30/1981,0.759,0.000
10/31/1981,0.770,0.000
11/01/1981,0.771,0.000
11/02/1981,0.826,0.000
11/03/1981,1.195,0.000
11/04/1981,1.204,0.000
11/05/1981,1.204,0.000
11/06/1981,1.204,0.000
11/07/1981,1.204,0.000
11/08/1981,1.521,0.000
11/09/1981,1.521,0.000
11/10/1981,1.521,0.000
11/11/1981,1.521,0.000
11/12/1981,1.521,0.000
11/13/1981,1.521,0.000
11/14/1981,1.521,0.000
11/15/1981,1.521,0.000
11/16/1981,1.521,0.000
11/17/1981,1.521,0.000
11/18/1981,1.521,0.000
11/19/1981,1.524,0.000
11/20/1981,1.524,0.000
11/21/1981,1.524,0.000
11/22/1981,1.524,0.000
11/23/1981,1.524,0.000
11/24/1981,1.524,0.000
11/25/1981,1.524,0.000
11/26/1981,1.524,0.000
11/27/1981,1.524,0.000
11/28/1981,1.524,0.000
11/29/1981,1.524,0.000
11/30/1981,1.553,0.001
12/01/1981,1.553,0.001
12/02/1981,1.553,0.001
12/03/1981,1.553,0.000
12/04/1981,1.553,0.000
12/05/1981,1.553,0.000
12/06/1981,1.553,0.000
12/07/1981,1.553,0.000
12/08/1981,1.553,0.000
12/09/1981,1.553,0.000
12/10/1981,1.553,0.000
12/11/1981,1.553,0.000
12/12/1981,1.553,0.000
12/13/1981,1.553,0.000
12/14/1981,1.553,0.000
12/15/1981,1.553,0.000
12/16/1981,1.553,0.000
12/17/1981,1.553,0.000
12/18/1981,1.553,0.000
12/19/1981,1.553,0.000
12/20/1981,1.553,0.000
12/21/1981,1.553,0.000
12/22/1981,1.733,0.000
12/23/1981,1.842,0.118
12/24/1981,1.842,0.118
12/25/1981,1.842,0.118
12/26/1981,1.842,0.118
12/27/1981,1.844,0.120
12/28/1981,1.846,0.122
12/29/1981,1.846,0.122
12/30/1981,1.846,0.099
12/31/1981,1.846,0.006
01/01/1982,1.846,0.005
01/02/1982,1.848,0.001
01/03/1982,1.859,0.000
01/04/1982,1.859,0.000
01/05/1982,1.859,0.000
01/06/1982,1.859,0.000
01/07/1982,1.859,0.000
01/08/1982,1.859,0.000
01/09/1982,1.859,0.000
01/10/1982,1.859,0.000
01/11/1982,1.859,0.000
01/12/1982,1.859,0.000
01/13/1982,1.859,0.000
01/14/1982,1.859,0.000
01/15/1982,1.859,0.000
01/16/1982,1.859,0.000
01/17/1982,1.859,0.000
01/18/1982,1.859,0.000
01/19/1982,1.859,0.000
01/20/1982,1.859,0.000
01/21/1982,1.859,0.000
01/22/1982,1.866,0.002
01/23/1982,1.866,0.002
01/24/1982,1.866,0.001
01/25/1982,1.866,0.000
01/26/1982,1.866,0.000
01/27/1982,1.866,0.000
01/28/1982,1.866,0.000
01/29/1982,1.872,0.000
01/30/1982,1.876,0.001
01/31/1982,1.876,0.001
02/01/1982,1.878,0.001
02/02/1982,1.915,0.024
02/03/1982,1.915,0.025
02/04/1982,2.004,0.127
02/05/1982,2.033,0.158
02/06/1982,2.033,0.158
02/07/1982,2.033,0.158
02/08/1982,2.033,0.158
02/09/1982,2.042,0.164
02/10/1982,2.042,0.164
02/11/1982,2.049,0.173
02/12/1982,2.163,0.288
02/13/1982,2.163,0.287
02/14/1982,2.163,0.044
02/15/1982,2.163,0.000
02/16/1982,2.166,0.000
02/17/1982,2.224,0.000
02/18/1982,2.224,0.000
02/19/1982,2.224,0.000
02/20/1982,2.224,0.000
02/21/1982,2.224,0.000
02/22/1982,2.224,0.000
02/23/1982,2.224,0.000
02/24/1982,2.224,0.000
02/25/1982,2.226,0.000
02/26/1982,2.238,0.013
02/27/1982,2.239,0.009
02/28/1982,2.239,0.000
03/01/1982,2.239,0.000
03/02/1982,2.239,0.000
03/03/1982,2.240,0.000
03/04/1982,2.251,0.006
03/05/1982,2.468,0.235
03/06/1982,2.497,0.255
03/07/1982,2.497,0.254
03/08/1982,2.497,0.007
03/09/1982,2.497,0.001
03/10/1982,2.497,0.000
03/11/1982,2.497,0.000
03/12/1982,2.497,0.000
03/13/1982,2.497,0.000
03/14/1982,2.594,0.000
03/15/1982,2.627,0.000
03/16/1982,2.627,0.000
03/17/1982,2.627,0.000
03/18/1982,2.634,0.000
03/19/1982,2.776,0.000
03/20/1982,2.776,0.000
03/21/1982,2.776,0.000
03/22/1982,2.776,0.000
03/23/1982,2.776,0.000
03/24/1982,2.776,0.000
03/25/1982,2.776,0.000
03/26/1982,2.776,0.000
03/27/1982,2.836,0.000
03/28/1982,2.849,0.001
03/29/1982,2.855,0.000
03/30/1982,2.857,0.000
03/31/1982,2.857,0.000
04/01/1982,2.857,0.000
04/02/1982,2.857,0.000
04/03/1982,2.857,0.000
04/04/1982,2.857,0.000
04/05/1982,2.857,0.000
04/06/1982,2.857,0.000
04/07/1982,2.857,0.000
04/08/1982,2.857,0.000
04/09/1982,2.857,0.000
04/10/1982,2.955,0.000
04/11/1982,2.955,0.000
04/12/1982,2.955,0.000
04/13/1982,2.955,0.000
04/14/1982,2.955,0.000
04/15/1982,2.955,0.000
04/16/1982,2.955,0.000
04/17/1982,2.956,0.000
04/18/1982,2.956,0.000
04/19/1982,2.956,0.000
04/20/1982,2.958,0.000
04/21/1982,2.958,0.000
04/22/1982,2.958,0.000
04/23/1982,2.958,0.000
04/24/1982,2.958,0.000
04/25/1982,2.958,0.000
04/26/1982,2.958,0.000
04/27/1982,3.285,0.000
04/28/1982,3.290,0.000
04/29/1982,3.401,0.000
04/30/1982,3.808,0.000
05/01/1982,3.810,0.000
05/02/1982,3.810,0.000
05/03/1982,3.810,0.000
05/04/1982,3.810,0.000
05/05/1982,3.846,0.000
05/06/1982,4.012,0.000
05/07/1982,4.012,0.000
05/08/1982,4.012,0.000
05/09/1982,4.012,0.000
05/10/1982,4.013,0.000
05/11/1982,4.029,0.000
05/12/1982,4.203,0.000
05/13/1982,4.552,0.000
05/14/1982,4.590,0.000
05/15/1982,4.590,0.000
05/16/1982,4.680,0.000
05/17/1982,4.888,0.000
05/18/1982,4.891,0.000
05/19/1982,4.905,0.000
05/20/1982,4.909,0.000
05/21/1982,4.909,0.000
05/22/1982,5.011,0.000
05/23/1982,5.611,0.000
05/24/1982,5.697,0.000
05/25/1982,5.774,0.000
05/26/1982,5.957,0.000
05/27/1982,5.963,0.000
05/28/1982,5.977,0.000
05/29/1982,5.977,0.000
05/30/1982,5.987,0.000
05/31/1982,6.045,0.000
06/01/1982,6.045,0.000
06/02/1982,6.045,0.000
06/03/1982,6.115,0.000
06/04/1982,6.186,0.000
06/05/1982,6.186,0.000
06/06/1982,6.187,0.000
06/07/1982,6.187,0.000
06/08/1982,6.187,0.000
06/09/1982,6.187,0.000
06/10/1982,6.187,0.000
06/11/1982,6.264,0.000
06/12/1982,6.880,0.000
06/13/1982,6.973,0.000
06/14/1982,7.070,0.000
06/15/1982,7.108,0.000
06/16/1982,7.214,0.000
06/17/1982,7.239,0.000
06/18/1982,7.333,0.000
06/19/1982,7.709,0.000
06/20/1982,7.718,0.000
06/21/1982,7.740,0.000
06/22/1982,7.740,0.000
06/23/1982,7.980,0.000
06/24/1982,8.070,0.000
06/25/1982,8.202,0.000
06/26/1982,8.942,0.000
06/27/1982,9.059,0.000
06/28/1982,9.059,0.000
06/29/1982,9.059,0.000
06/30/1982,9.089,0.000
07/01/1982,9.096,0.000
07/02/1982,9.096,0.000
07/03/1982,9.096,0.000
07/04/1982,9.096,0.000
07/05/1982,9.204,0.000
07/06/1982,9.204,0.000
07/07/1982,9.204,0.000
07/08/1982,10.226,0.000
07/09/1982,10.252,0.000
07/10/1982,10.571,0.000
07/11/1982,10.595,0.000
07/12/1982,10.665,0.000
07/13/1982,10.669,0.000
07/14/1982,10.837,0.000
07/15/1982,10.975,0.000
07/16/1982,10.988,0.000
07/17/1982,10.993,0.000
07/18/1982,11.041,0.000
07/19/1982,11.418,0.000
07/20/1982,11.451,0.000
07/21/1982,11.451,0.000
07/22/1982,11.451,0.000
07/23/1982,11.451,0.000
07/24/1982,11.451,0.000
07/25/1982,11.451,0.000
07/26/1982,11.451,0.000
07/27/1982,11.464,0.000
07/28/1982,11.844,0.000
07/29/1982,12.819,0.000
07/30/1982,13.847,0.000
07/31/1982,13.916,0.000
08/01/1982,13.916,0.000
08/02/1982,13.916,0.000
08/03/1982,13.916,0.000
08/04/1982,13.941,0.000
08/05/1982,14.308,0.000
08/06/1982,14.551,0.000
08/07/1982,14.571,0.000
08/08/1982,14.763,0.000
08/09/1982,14.763,0.000
08/10/1982,14.782,0.000
08/11/1982,14.804,0.000
08/12/1982,14.804,0.000
08/13/1982,14.804,0.000
08/14/1982,14.804,0.000
08/15/1982,14.825,0.000
08/16/1982,14.965,0.000
08/17/1982,14.965,0.000
08/18/1982,15.038,0.000
08/19/1982,15.038,0.000
08/20/1982,15.038,0.000
08/21/1982,15.362,0.000
08/22/1982,15.362,0.000
08/23/1982,15.362,0.000
08/24/1982,15.381,0.000
08/25/1982,15.383,0.000
08/26/1982,15.383,0.000
08/27/1982,15.383,0.000
08/28/1982,15.412,0.000
08/29/1982,15.414,0.000
08/30/1982,15.417,0.000
08/31/1982,15.418,0.000
09/01/1982,15.418,0.000
09/02/1982,15.499,0.000
09/03/1982,15.499,0.000
09/04/1982,15.499,0.000
09/05/1982,15.499,0.000
09/06/1982,15.567,0.000
09/07/1982,15.567,0.000
09/08/1982,15.579,0.000
09/09/1982,15.579,0.000
09/10/1982,15.583,0.000
09/11/1982,15.583,0.000
09/12/1982,15.717,0.000
09/13/1982,15.724,0.000
09/14/1982,15.734,0.000
09/15/1982,15.738,0.000
09/16/1982,15.746,0.000
09/17/1982,15.746,0.000
09/18/1982,15.800,0.000
09/19/1982,15.820,0.000
09/20/1982,15.822,0.000
09/21/1982,15.822,0.000
09/22/1982,15.822,0.000
09/23/1982,15.847,0.000
09/24/1982,15.863,0.000
09/25/1982,15.868,0.000
09/26/1982,15.869,0.000
09/27/1982,15.869,0.000
09/28/1982,15.869,0.000
09/29/1982,15.869,0.000
09/30/1982,15.869,0.000
10/01/1982,1.266,0.000
10/02/1982,1.269,0.000
10/03/1982,1.269,0.000
10/04/1982,1.269,0.000
10/05/1982,1.269,0.000
10/06/1982,1.275,0.000
10/07/1982,1.275,0.000
10/08/1982,1.441,0.000
10/09/1982,1.441,0.000
10/10/1982,1.441,0.000
10/11/1982,1.441,0.000
10/12/1982,1.441,0.000
10/13/1982,1.446,0.000
10/14/1982,1.456,0.000
10/15/1982,1.456,0.000
10/16/1982,1.456,0.000
10/17/1982,1.456,0.000
10/18/1982,1.456,0.000
10/19/1982,1.456,0.000
10/20/1982,1.456,0.000
10/21/1982,1.456,0.000
10/22/1982,1.456,0.000
10/23/1982,1.456,0.000
10/24/1982,1.456,0.000
10/25/1982,1.456,0.000
10/26/1982,1.456,0.000
10/27/1982,1.456,0.000
10/28/1982,1.464,0.000
10/29/1982,1.464,0.000
10/30/1982,1.464,0.000
10/31/1982,1.464,0.000
11/01/1982,1.468,0.000
11/02/1982,1.504,0.000
11/03/1982,1.513,0.005
11/04/1982,1.513,0.004
11/05/1982,1.513,0.001
11/06/1982,1.513,0.000
11/07/1982,1.513,0.000
11/08/1982,1.513,0.000
11/09/1982,1.513,0.000
11/10/1982,1.513,0.000
11/11/1982,1.596,0.000
11/12/1982,1.596,0.000
11/13/1982,1.596,0.000
11/14/1982,1.596,0.000
11/15/1982,1.596,0.000
11/16/1982,1.596,0.000
11/17/1982,1.596,0.000
11/18/1982,1.601,0.000
11/19/1982,1.601,0.000
11/20/1982,1.601,0.000
11/21/1982,1.601,0.000
11/22/1982,1.601,0.000
11/23/1982,1.601,0.000
11/24/1982,1.601,0.000
11/25/1982,1.601,0.000
11/26/1982,1.605,0.000
11/27/1982,1.716,0.045
11/28/1982,1.859,0.212
11/29/1982,1.859,0.069
11/30/1982,1.859,0.004
12/01/1982,1.859,0.001
12/02/1982,1.859,0.001
12/03/1982,1.859,0.001
12/04/1982,1.859,0.001
12/05/1982,1.859,0.000
12/06/1982,1.859,0.000
12/07/1982,1.859,0.000
12/08/1982,1.864,0.001
12/09/1982,1.871,0.005
12/10/1982,1.892,0.006
12/11/1982,1.949,0.066
12/12/1982,1.954,0.070
12/13/1982,1.954,0.021
12/14/1982,1.954,0.003
12/15/1982,1.954,0.003
12/16/1982,1.954,0.003
12/17/1982,1.954,0.001
12/18/1982,1.954,0.000
12/19/1982,1.954,0.000
12/20/1982,1.954,0.000
12/21/1982,1.954,0.000
12/22/1982,1.954,0.000
12/23/1982,1.954,0.000
12/24/1982,1.969,0.000
12/25/1982,1.972,0.004
12/26/1982,1.994,0.027
12/27/1982,2.446,0.438
12/28/1982,2.515,0.530
12/29/1982,2.515,0.530
12/30/1982,2.515,0.530
12/31/1982,2.515,0.530
01/01/1983,2.515,0.530
01/02/1983,2.515,0.530
01/03/1983,2.515,0.530
01/04/1983,2.515,0.530
01/05/1983,2.515,0.530
01/06/1983,2.515,0.304
01/07/1983,2.515,0.146
01/08/1983,2.515,0.044
01/09/1983,2.515,0.001
01/10/1983,2.515,0.001
01/11/1983,2.515,0.001
01/12/1983,2.515,0.001
01/13/1983,2.515,0.000
01/14/1983,2.515,0.000
01/15/1983,2.515,0.000
01/16/1983,2.515,0.000
01/17/1983,2.515,0.000
01/18/1983,2.539,0.025
01/19/1983,2.574,0.050
01/20/1983,2.578,0.053
01/21/1983,3.016,0.587
01/22/1983,3.016,0.587
01/23/1983,3.016,0.587
01/24/1983,3.016,0.587
01/25/1983,3.022,0.512
01/26/1983,3.022,0.445
01/27/1983,3.022,0.444
01/28/1983,3.022,0.325
01/29/1983,3.022,0.080
01/30/1983,3.022,0.010
01/31/1983,3.054,0.007
02/01/1983,3.501,0.534
02/02/1983,3.607,0.674
02/03/1983,3.607,0.674
02/04/1983,3.821,0.936
02/05/1983,3.871,0.987
02/06/1983,3.871,0.987
02/07/1983,3.871,0.987
02/08/1983,3.871,0.987
02/09/1983,3.871,0.987
02/10/1983,3.871,0.901
02/11/1983,3.871,0.627
02/12/1983,3.871,0.569
02/13/1983,3.871,0.515
02/14/1983,3.871,0.325
02/15/1983,3.871,0.192
02/16/1983,3.871,0.066
02/17/1983,3.916,0.005
02/18/1983,3.928,0.004
02/19/1983,3.928,0.002
02/20/1983,4.002,0.009
02/21/1983,4.044,0.011
02/22/1983,4.046,0.007
02/23/1983,4.046,0.004
02/24/1983,4.046,0.003
02/25/1983,4.046,0.002
02/26/1983,4.046,0.002
02/27/1983,4.046,0.001
02/28/1983,4.046,0.001
03/01/1983,4.046,0.000
03/02/1983,4.046,0.000
03/03/1983,4.046,0.000
03/04/1983,4.051,0.000
03/05/1983,4.242,0.000
03/06/1983,4.278,0.000
03/07/1983,4.278,0.000
03/08/1983,4.278,0.000
03/09/1983,4.278,0.000
03/10/1983,4.278,0.000
03/11/1983,4.278,0.000
03/12/1983,4.278,0.000
03/13/1983,4.278,0.000
03/14/1983,4.316,0.000
03/15/1983,4.366,0.000
03/16/1983,4.626,0.004
03/17/1983,4.643,0.008
03/18/1983,4.643,0.008
03/19/1983,4.951,0.339
03/20/1983,5.026,0.402
03/21/1983,5.026,0.402
03/22/1983,5.042,0.412
03/23/1983,5.152,0.463
03/24/1983,5.152,0.454
03/25/1983,5.153,0.139
03/26/1983,5.160,0.009
03/27/1983,5.160,0.009
03/28/1983,5.160,0.007
03/29/1983,5.170,0.001
03/30/1983,5.170,0.001
03/31/1983,5.170,0.000
04/01/1983,5.314,0.000
04/02/1983,5.314,0.000
04/03/1983,5.348,0.000
04/04/1983,5.644,0.003
04/05/1983,5.762,0.147
04/06/1983,5.777,0.155
04/07/1983,5.777,0.155
04/08/1983,5.789,0.094
04/09/1983,5.793,0.047
04/10/1983,5.793,0.002
04/11/1983,5.793,0.000
04/12/1983,5.793,0.000
04/13/1983,5.923,0.001
04/14/1983,5.923,0.001
04/15/1983,5.923,0.001
04/16/1983,5.923,0.001
04/17/1983,5.923,0.000
04/18/1983,5.923,0.000
04/19/1983,5.923,0.000
04/20/1983,5.923,0.000
04/21/1983,5.965,0.000
04/22/1983,6.039,0.000
04/23/1983,6.156,0.000
04/24/1983,6.156,0.000
04/25/1983,6.156,0.000
04/26/1983,6.156,0.000
04/27/1983,6.156,0.000
04/28/1983,6.156,0.000
04/29/1983,6.156,0.000
04/30/1983,6.156,0.000
05/01/1983,6.156,0.000
05/02/1983,6.225,0.000
05/03/1983,6.275,0.000
05/04/1983,6.275,0.000
05/05/1983,6.275,0.000
05/06/1983,6.275,0.000
05/07/1983,6.275,0.000
05/08/1983,6.275,0.000
05/09/1983,6.298,0.000
05/10/1983,6.532,0.000
05/11/1983,6.532,0.000
05/12/1983,6.532,0.000
05/13/1983,6.532,0.000
05/14/1983,6.641,0.000
05/15/1983,6.642,0.000
05/16/1983,6.642,0.000
05/17/1983,6.642,0.000
05/18/1983,6.642,0.000
05/19/1983,6.730,0.000
05/20/1983,7.105,0.000
05/21/1983,7.430,0.000
05/22/1983,7.432,0.000
05/23/1983,7.439,0.000
05/24/1983,7.439,0.000
05/25/1983,7.612,0.000
05/26/1983,7.839,0.000
05/27/1983,7.869,0.000
05/28/1983,7.902,0.000
05/29/1983,7.962,0.000
05/30/1983,8.140,0.000
05/31/1983,8.461,0.000
06/01/1983,8.574,0.000
06/02/1983,8.574,0.000
06/03/1983,8.574,0.000
06/04/1983,8.646,0.000
06/05/1983,8.865,0.000
06/06/1983,9.175,0.000
06/07/1983,9.213,0.000
06/08/1983,9.390,0.000
06/09/1983,9.462,0.000
06/10/1983,9.606,0.000
06/11/1983,9.758,0.000
06/12/1983,9.758,0.000
06/13/1983,9.773,0.000
06/14/1983,9.803,0.000
06/15/1983,9.833,0.000
06/16/1983,10.134,0.000
06/17/1983,10.347,0.000
06/18/1983,10.350,0.000
06/19/1983,10.350,0.000
06/20/1983,10.350,0.000
06/21/1983,10.350,0.000
06/22/1983,10.350,0.000
06/23/1983,10.350,0.000
06/24/1983,10.350,0.000
06/25/1983,10.491,0.000
06/26/1983,10.742,0.000
06/27/1983,11.104,0.000
06/28/1983,11.551,0.000
06/29/1983,11.639,0.000
06/30/1983,11.639,0.000
07/01/1983,11.639,0.000
07/02/1983,11.639,0.000
07/03/1983,11.639,0.000
07/04/1983,11.639,0.000
07/05/1983,11.639,0.000
07/06/1983,11.639,0.000
07/07/1983,11.639,0.000
07/08/1983,11.639,0.000
07/09/1983,11.639,0.000
07/10/1983,11.639,0.000
07/11/1983,11.645,0.000
07/12/1983,11.820,0.000
07/13/1983,11.857,0.000
07/14/1983,11.857,0.000
07/15/1983,11.857,0.000
07/16/1983,11.857,0.000
07/17/1983,11.857,0.000
07/18/1983,11.865,0.000
07/19/1983,11.865,0.000
07/20/1983,11.865,0.000
07/21/1983,11.865,0.000
07/22/1983,11.865,0.000
07/23/1983,11.865,0.000
07/24/1983,12.017,0.000
07/25/1983,12.043,0.000
07/26/1983,12.105,0.000
07/27/1983,12.115,0.000
07/28/1983,12.116,0.000
07/29/1983,12.138,0.000
07/30/1983,12.222,0.000
07/31/1983,12.266,0.000
08/01/1983,12.285,0.000
08/02/1983,12.324,0.000
08/03/1983,12.365,0.000
08/04/1983,12.365,0.000
08/05/1983,12.365,0.000
08/06/1983,12.393,0.000
08/07/1983,12.409,0.000
08/08/1983,12.409,0.000
08/09/1983,12.409,0.000
08/10/1983,12.409,0.000
08/11/1983,12.409,0.000
08/12/1983,12.409,0.000
08/13/1983,12.563,0.000
08/14/1983,12.582,0.000
08/15/1983,12.582,0.000
08/16/1983,12.582,0.000
08/17/1983,12.582,0.000
08/18/1983,12.582,0.000
08/19/1983,12.582,0.000
08/20/1983,12.610,0.000
08/21/1983,12.610,0.000
08/22/1983,12.620,0.000
08/23/1983,12.622,0.000
08/24/1983,12.651,0.000
08/25/1983,12.651,0.000
08/26/1983,12.651,0.000
08/27/1983,12.723,0.000
08/28/1983,12.781,0.000
08/29/1983,12.868,0.000
08/30/1983,13.027,0.000
08/31/1983,13.103,0.000
09/01/1983,13.104,0.000
09/02/1983,13.104,0.000
09/03/1983,13.104,0.000
09/04/1983,13.104,0.000
09/05/1983,13.147,0.000
09/06/1983,13.147,0.000
09/07/1983,13.147,0.000
09/08/1983,13.147,0.000
09/09/1983,13.147,0.000
09/10/1983,13.147,0.000
09/11/1983,13.147,0.000
09/12/1983,13.147,0.000
09/13/1983,13.309,0.000
09/14/1983,13.313,0.000
09/15/1983,13.357,0.000
09/16/1983,13.357,0.000
09/17/1983,13.357,0.000
09/18/1983,13.357,0.000
09/19/1983,13.357,0.000
09/20/1983,13.357,0.000
09/21/1983,13.357,0.000
09/22/1983,13.357,0.000
09/23/1983,13.357,0.000
09/24/1983,13.357,0.000
09/25/1983,13.358,0.000
09/26/1983,13.360,0.000
09/27/1983,13.360,0.000
09/28/1983,13.360,0.000
09/29/1983,13.360,0.000
09/30/1983,13.388,0.000
10/01/1983,0.002,0.000
10/02/1983,0.002,0.000
10/03/1983,0.002,0.000
10/04/1983,0.002,0.000
10/05/1983,0.002,0.000
10/06/1983,0.005,0.000
10/07/1983,0.005,0.000
10/08/1983,0.011,0.000
10/09/1983,0.057,0.000
10/10/1983,0.057,0.000
10/11/1983,0.059,0.000
10/12/1983,0.068,0.000
10/13/1983,0.068,0.000
10/14/1983,0.068,0.000
10/15/1983,0.068,0.000
10/16/1983,0.068,0.000
10/17/1983,0.071,0.000
10/18/1983,0.071,0.000
10/19/1983,0.071,0.000
10/20/1983,0.304,0.000
10/21/1983,0.689,0.000
10/22/1983,0.690,0.000
10/23/1983,0.690,0.000
10/24/1983,0.690,0.000
10/25/1983,0.701,0.000
10/26/1983,0.701,0.000
10/27/1983,0.701,0.000
10/28/1983,0.701,0.000
10/29/1983,0.701,0.000
10/30/1983,0.701,0.000
10/31/1983,0.703,0.000
11/01/1983,0.805,0.000
11/02/1983,0.805,0.000
11/03/1983,0.805,0.000
11/04/1983,0.805,0.000
11/05/1983,0.805,0.000
11/06/1983,0.805,0.000
11/07/1983,0.807,0.000
11/08/1983,0.807,0.000
11/09/1983,0.862,0.000
11/10/1983,0.862,0.000
11/11/1983,0.862,0.000
11/12/1983,0.862,0.000
11/13/1983,0.862,0.000
11/14/1983,0.862,0.000
11/15/1983,0.862,0.000
11/16/1983,0.862,0.000
11/17/1983,0.862,0.000
11/18/1983,0.862,0.000
11/19/1983,1.188,0.000
11/20/1983,1.188,0.000
11/21/1983,1.188,0.000
11/22/1983,1.222,0.000
11/23/1983,1.229,0.000
11/24/1983,1.229,0.000
11/25/1983,1.229,0.000
11/26/1983,1.232,0.000
11/27/1983,1.270,0.048
11/28/1983,1.283,0.059
11/29/1983,1.283,0.059
11/30/1983,1.283,0.059
12/01/1983,1.283,0.059
12/02/1983,1.340,0.004
12/03/1983,1.605,0.278
12/04/1983,1.605,0.252
12/05/1983,1.605,0.095
12/06/1983,1.605,0.095
12/07/1983,1.605,0.087
12/08/1983,1.605,0.014
12/09/1983,1.605,0.003
12/10/1983,1.605,0.002
12/11/1983,1.605,0.000
12/12/1983,1.606,0.000
12/13/1983,1.606,0.000
12/14/1983,1.606,0.000
12/15/1983,1.636,0.034
12/16/1983,1.672,0.068
12/17/1983,1.681,0.074
12/18/1983,1.682,0.076
12/19/1983,1.698,0.087
12/20/1983,1.699,0.088
12/21/1983,1.722,0.116
12/22/1983,1.724,0.118
12/23/1983,1.724,0.118
12/24/1983,1.724,0.118
12/25/1983,1.724,0.119
12/26/1983,1.736,0.128
12/27/1983,1.746,0.140
12/28/1983,1.832,0.244
12/29/1983,1.833,0.245
12/30/1983,1.833,0.245
12/31/1983,1.833,0.245
01/01/1984,1.833,0.122
01/02/1984,1.833,0.113
01/03/1984,1.833,0.097
01/04/1984,1.833,0.020
01/05/1984,1.833,0.005
01/06/1984,1.833,0.001
01/07/1984,1.833,0.001
01/08/1984,1.833,0.001
01/09/1984,1.833,0.000
01/10/1984,1.833,0.000
01/11/1984,1.833,0.000
01/12/1984,1.835,0.000
01/13/1984,1.835,0.000
01/14/1984,1.922,0.095
01/15/1984,1.971,0.143
01/16/1984,1.971,0.143
01/17/1984,2.082,0.282
01/18/1984,2.144,0.363
01/19/1984,2.144,0.363
01/20/1984,2.144,0.363
01/21/1984,2.144,0.363
01/22/1984,2.144,0.363
01/23/1984,2.144,0.363
01/24/1984,2.144,0.363
01/25/1984,2.144,0.306
01/26/1984,2.144,0.147
01/27/1984,2.144,0.096
01/28/1984,2.144,0.014
01/29/1984,2.144,0.002
01/30/1984,2.144,0.002
01/31/1984,2.144,0.002
02/01/1984,2.144,0.001
02/02/1984,2.144,0.001
02/03/1984,2.144,0.001
02/04/1984,2.144,0.001
02/05/1984,2.144,0.001
02/06/1984,2.144,0.001
02/07/1984,2.144,0.001
02/08/1984,2.235,0.001
02/09/1984,2.347,0.083
02/10/1984,2.347,0.001
02/11/1984,2.347,0.000
02/12/1984,2.347,0.000
02/13/1984,2.347,0.000
02/14/1984,2.347,0.000
02/15/1984,2.389,0.000
02/16/1984,2.495,0.044
02/17/1984,2.498,0.000
02/18/1984,2.537,0.001
02/19/1984,2.537,0.001
02/20/1984,2.537,0.001
02/21/1984,2.537,0.001
02/22/1984,2.537,0.000
02/23/1984,2.537,0.000
02/24/1984,2.537,0.000
02/25/1984,2.537,0.000
02/26/1984,2.612,0.000
02/27/1984,2.618,0.001
02/28/1984,2.618,0.001
02/29/1984,2.618,0.001
03/01/1984,2.618,0.000
03/02/1984,2.618,0.000
03/03/1984,2.618,0.000
03/04/1984,2.623,0.000
03/05/1984,2.637,0.013
03/06/1984,2.637,0.013
03/07/1984,2.637,0.013
03/08/1984,2.637,0.002
03/09/1984,2.637,0.001
03/10/1984,2.637,0.000
03/11/1984,2.638,0.000
03/12/1984,2.659,0.000
03/13/1984,2.659,0.000
03/14/1984,2.659,0.000
03/15/1984,2.659,0.000
03/16/1984,2.659,0.000
03/17/1984,2.664,0.000
03/18/1984,2.891,0.000
03/19/1984,3.067,0.167
03/20/1984,3.067,0.084
03/21/1984,3.067,0.001
03/22/1984,3.080,0.000
03/23/1984,3.489,0.161
03/24/1984,3.530,0.212
03/25/1984,3.561,0.001
03/26/1984,3.672,0.000
03/27/1984,3.889,0.001
03/28/1984,4.060,0.027
03/29/1984,4.060,0.024
03/30/1984,4.081,0.002
03/31/1984,4.276,0.069
04/01/1984,4.457,0.048
04/02/1984,5.079,0.065
04/03/1984,5.089,0.048
04/04/1984,5.089,0.045
04/05/1984,5.089,0.014
04/06/1984,5.089,0.001
04/07/1984,5.089,0.000
04/08/1984,5.260,0.000
04/09/1984,5.260,0.000
04/10/1984,5.596,0.000
04/11/1984,5.619,0.000
04/12/1984,5.619,0.000
04/13/1984,5.619,0.000
04/14/1984,5.619,0.000
04/15/1984,5.619,0.000
04/16/1984,5.619,0.000
04/17/1984,5.678,0.000
04/18/1984,5.678,0.000
04/19/1984,5.732,0.000
04/20/1984,5.747,0.000
04/21/1984,5.847,0.000
04/22/1984,5.852,0.000
04/23/1984,5.852,0.000
04/24/1984,5.852,0.000
04/25/1984,5.852,0.000
04/26/1984,5.852,0.000
04/27/1984,5.852,0.000
04/28/1984,5.852,0.000
04/29/1984,6.606,0.000
04/30/1984,6.619,0.000
05/01/1984,6.619,0.000
05/02/1984,6.655,0.000
05/03/1984,6.755,0.000
05/04/1984,6.755,0.000
05/05/1984,7.174,0.000
05/06/1984,7.334,0.000
05/07/1984,7.334,0.000
05/08/1984,7.334,0.000
05/09/1984,7.334,0.000
05/10/1984,7.334,0.000
05/11/1984,7.334,0.000
05/12/1984,7.334,0.000
05/13/1984,7.479,0.000
05/14/1984,7.643,0.000
05/15/1984,7.643,0.000
05/16/1984,7.678,0.000
05/17/1984,7.783,0.000
05/18/1984,8.065,0.000
05/19/1984,8.201,0.000
05/20/1984,8.201,0.000
05/21/1984,8.201,0.000
05/22/1984,8.201,0.000
05/23/1984,8.201,0.000
05/24/1984,8.201,0.000
05/25/1984,8.201,0.000
05/26/1984,8.201,0.000
05/27/1984,8.201,0.000
05/28/1984,8.201,0.000
05/29/1984,8.201,0.000
05/30/1984,8.201,0.000
05/31/1984,8.201,0.000
06/01/1984,8.203,0.000
06/02/1984,8.243,0.000
06/03/1984,8.371,0.000
06/04/1984,8.430,0.000
06/05/1984,8.430,0.000
06/06/1984,8.430,0.000
06/07/1984,8.430,0.000
06/08/1984,8.430,0.000
06/09/1984,8.438,0.000
06/10/1984,8.438,0.000
06/11/1984,8.620,0.000
06/12/1984,8.620,0.000
06/13/1984,8.620,0.000
06/14/1984,8.633,0.000
06/15/1984,8.665,0.000
06/16/1984,8.917,0.000
06/17/1984,8.953,0.000
06/18/1984,9.153,0.000
06/19/1984,9.184,0.000
06/20/1984,9.191,0.000
06/21/1984,9.191,0.000
06/22/1984,9.201,0.000
06/23/1984,9.227,0.000
06/24/1984,9.241,0.000
06/25/1984,9.299,0.000
06/26/1984,9.371,0.000
06/27/1984,9.371,0.000
06/28/1984,9.374,0.000
06/29/1984,9.381,0.000
06/30/1984,9.416,0.000
07/01/1984,9.537,0.000
07/02/1984,9.609,0.000
07/03/1984,9.609,0.000
07/04/1984,9.841,0.000
07/05/1984,9.843,0.000
07/06/1984,10.047,0.000
07/07/1984,10.047,0.000
07/08/1984,10.047,0.000
07/09/1984,10.047,0.000
07/10/1984,10.077,0.000
07/11/1984,10.475,0.000
07/12/1984,10.476,0.000
07/13/1984,10.476,0.000
07/14/1984,10.476,0.000
07/15/1984,10.523,0.000
07/16/1984,10.954,0.000
07/17/1984,10.989,0.000
07/18/1984,10.990,0.000
07/19/1984,11.088,0.000
07/20/1984,11.088,0.000
07/21/1984,11.088,0.000
07/22/1984,11.088,0.000
07/23/1984,11.088,0.000
07/24/1984,11.106,0.000
07/25/1984,11.106,0.000
07/26/1984,11.106,0.000
07/27/1984,11.115,0.000